This is the latest recevied weather packets stored in our database for station/object KO4APQ. If no packets are shown the sender has not sent any weather packets the latest 10 day(s).
| Time | Temp. | Humidity | Pressure | Rain* | Wind** | Luminosity | Snow |
|---|---|---|---|---|---|---|---|
| 1778194351 | 21.11° C | 56% | 1011.6 hPa | 0 mm | - | 113 W/m² | - |
| 1778194047 | 21.11° C | 55% | 1011.5 hPa | 0 mm | - | 119 W/m² | - |
| 1778193744 | 21.67° C | 55% | 1011.5 hPa | 0 mm | - | 116 W/m² | - |
| 1778193440 | 21.67° C | 55% | 1011.4 hPa | 0 mm | - | 115 W/m² | - |
| 1778193137 | 22.22° C | 53% | 1011.5 hPa | 0 mm | - | 135 W/m² | - |
| 1778192834 | 22.78° C | 53% | 1011.2 hPa | 0 mm | - | 227 W/m² | - |
| 1778192530 | 22.78° C | 52% | 1011.1 hPa | 0 mm | - | 294 W/m² | - |
| 1778192227 | 22.78° C | 51% | 1011.2 hPa | 0 mm | - | 313 W/m² | - |
| 1778191923 | 22.78° C | 52% | 1010.8 hPa | 0 mm | - | 329 W/m² | - |
| 1778191620 | 23.33° C | 52% | 1011 hPa | 0 mm | - | 348 W/m² | - |
| 1778191318 | 23.33° C | 52% | 1010.9 hPa | 0 mm | - | 370 W/m² | - |
| 1778191014 | 22.78° C | 53% | 1010.6 hPa | 0 mm | - | 411 W/m² | - |
| 1778190712 | 23.33° C | 52% | 1010.8 hPa | 0 mm | - | 288 W/m² | - |
| 1778190409 | 23.33° C | 53% | 1010.6 hPa | 0 mm | - | 419 W/m² | - |
| 1778190105 | 23.33° C | 54% | 1010.4 hPa | 0 mm | - | 442 W/m² | - |
| 1778189801 | 23.33° C | 53% | 1010.5 hPa | 0 mm | - | 458 W/m² | - |
| 1778189499 | 23.89° C | 54% | 1010.6 hPa | 0 mm | - | 480 W/m² | - |
| 1778189194 | 23.33° C | 54% | 1010.4 hPa | 0 mm | - | 501 W/m² | - |
| 1778188891 | 23.89° C | 52% | 1010.5 hPa | 0 mm | - | 516 W/m² | - |
| 1778188588 | 23.89° C | 52% | 1010.4 hPa | 0 mm | - | 534 W/m² | - |
| 1778188284 | 23.89° C | 56% | 1010.3 hPa | 0 mm | - | 557 W/m² | - |
| 1778187982 | 23.89° C | 53% | 1010.4 hPa | 0 mm | - | 578 W/m² | - |
| 1778187678 | 24.44° C | 54% | 1010.1 hPa | 0 mm | - | 593 W/m² | - |
| 1778187375 | 24.44° C | 56% | 1010.4 hPa | 0 mm | - | 612 W/m² | - |
| 1778187071 | 23.89° C | 55% | 1010.4 hPa | 0 mm | - | 664 W/m² | - |
* Rain latest hour (hover to see other rain measurements)
** Current wind speed in m/s (hover to see current wind gust speed)